Regional Weather Roundup
Issued by NWS

Home | Current Version | Previous Version | Text Only | Print | Product List | Glossary Off
Versions: 1 2 3 4 5 6 7 8 9 10 11 12 13 14 15 16 17 18 19 20 21 22 23 24 25 26 27 28 29 30 31 32 33 34 35 36 37 38 39 40 41 42 43 44 45 46 47 48 49 50

776
ASUS43 KMKX 200020
RWRWI

WISCONSIN REGIONAL WEATHER ROUNDUP
NATIONAL WEATHER SERVICE MILWAUKEE/SULLIVAN WI
600 PM CST MON FEB 19 2018

NOTE: "FAIR" INDICATES FEW OR NO CLOUDS BELOW 12,000 FEET WITH NO
SIGNIFICANT WEATHER AND/OR OBSTRUCTIONS TO VISIBILITY.

WIZ001-002-006>008-014>016-023>028-200100-
NORTHWEST WISCONSIN

CITY           SKY/WX    TMP DP  RH WIND       PRES   REMARKS
SUPERIOR ARPT  LGT SNOW  20  15  83 NE20G30   30.06R WCI   4
6HR MIN TEMP:  16; 6HR MAX TEMP:  19;

ASHLAND        LGT SNOW  18  15  88 NE23G32   30.03S FOG     WCI   0
6HR MIN TEMP:  18; 6HR MAX TEMP:  19; 6HR PCP: TRACE;

HAYWARD        LGT SNOW  18  13  80 NE14G25   29.94R WCI   4
6HR MIN TEMP:  18; 6HR MAX TEMP:  20; 6HR PCP:  0.03;

SIREN          LGT SNOW  18  14  86 NE10G16   29.96R WCI   6
6HR MIN TEMP:  18; 6HR MAX TEMP:  21;

CUMBERLAND     MIX PCPN  19  14  79 NE17      29.88S WCI   4
RICE LAKE      LGT SNOW  21  19  92 N15       29.90S WCI   8
6HR MIN TEMP:  21; 6HR MAX TEMP:  22; 6HR PCP:  0.02;

CHETEK         MIX PCPN  20  18  91 NE13      29.89R WCI   7
6HR MIN TEMP:  20; 6HR MAX TEMP:  22; 6HR PCP:  0.01;

LADYSMITH      CLOUDY    21  18  88 NE12      29.90R FOG     WCI   9
6HR MIN TEMP:  21; 6HR MAX TEMP:  22;

EAU CLAIRE     FRZ RAIN  23  22  96 NE15G23   29.84R VSB 1   WCI  10
6HR MIN TEMP:  23; 6HR MAX TEMP:  24; 6HR PCP:  0.03;

MENOMONIE      CLOUDY    23  21  91 N10G20    29.86S FOG     WCI  13
NEW RICHMOND   CLOUDY    21  17  84 NE13      29.90R WCI   8
6HR MIN TEMP:  21; 6HR MAX TEMP:  23;

OSCEOLA        MIX PCPN  21  18  88 NE9       29.96R WCI  11
6HR MIN TEMP:  21; 6HR MAX TEMP:  22;

$$

WIZ003>005-009-010-017-018-200100-
NORTH CENTRAL WISCONSIN

CITY           SKY/WX    TMP DP  RH WIND       PRES   REMARKS
MANITOWISH WTR LGT SNOW  15  14  95 NE9       29.92S WCI   4
6HR MIN TEMP:  15; 6HR MAX TEMP:  17; 6HR PCP:  0.01;

ARBOR VITAE    CLOUDY    19  15  85 NE9       29.91S WCI   8
6HR MIN TEMP:  19; 6HR MAX TEMP:  22; 6HR PCP:  0.02;

WOODRUFF       CLOUDY    19  15  85 NE9       29.91S WCI   8
6HR MIN TEMP:  19; 6HR MAX TEMP:  22; 6HR PCP:  0.02;

RHINELANDER    CLOUDY    19  17  92 NE12      29.89S WCI   7
6HR MIN TEMP:  19; 6HR MAX TEMP:  22; 6HR PCP:  0.04;

EAGLE RIVER    CLOUDY    18  13  82 NE12G17   29.90S WCI   5
6HR MIN TEMP:  17; 6HR MAX TEMP:  20;

LAND O LAKES   LGT SNOW  17  14  87 NE10      29.94F WCI   5
6HR MIN TEMP:  17; 6HR MAX TEMP:  19;

PHILLIPS       CLOUDY    18  16  91 NE15G23   29.88R WCI   4
6HR MIN TEMP:  18; 6HR MAX TEMP:  19; 6HR PCP:  0.01;

TOMAHAWK       CLOUDY    20  18  91 NE8       29.89S FOG     WCI  10
6HR MIN TEMP:  20; 6HR MAX TEMP:  22;

MEDFORD        MIX PCPN  22  20  93 NE15      29.81F WCI   8
6HR MIN TEMP:  22; 6HR MAX TEMP:  23; 6HR PCP:  0.01;

MERRILL        LGT SNOW  23  21  93 E12       29.87F WCI  11
6HR MIN TEMP:  23; 6HR MAX TEMP:  25;

$$

WIZ029-030-035-036-043>047-200100-
CENTRAL WISCONSIN

CITY           SKY/WX    TMP DP  RH WIND       PRES   REMARKS
WAUSAU         MIX PCPN  25  22  88 NE10G20   29.83S FOG     WCI  15
6HR MIN TEMP:  25; 6HR MAX TEMP:  29; 6HR PCP:  0.03;

MOSINEE        LGT SNOW  25  25 100 NE15      29.84F WCI  12
MARSHFIELD     CLOUDY    27  25  92 E17G23    29.81R FOG     WCI  14
6HR MIN TEMP:  27; 6HR MAX TEMP:  31; 6HR PCP:  0.01;

STEVENS POINT  CLOUDY    25  24  99 E14G25    29.84S FOG     WCI  13
6HR MIN TEMP:  25; 6HR MAX TEMP:  31;

WAUPACA        CLOUDY    30  27  89 NE8       29.86S FOG     WCI  22
6HR MIN TEMP:  30; 6HR MAX TEMP:  38;

WAUTOMA        CLOUDY    29  27  92 E15       29.83S WCI  18
6HR MIN TEMP:  29; 6HR MAX TEMP:  38;

WISC RAPIDS    CLOUDY    27  23  85 E16G23    29.83S WCI  15
6HR MIN TEMP:  27; 6HR MAX TEMP:  34; 6HR PCP: TRACE;

CAMP DOUGLAS   CLOUDY    32  32 100 E14G20    29.79R FOG     WCI  22
6HR MIN TEMP:  32; 6HR MAX TEMP:  40;

$$

WIZ011>013-019>022-031-037>040-048>050-200100-
NORTHEAST WISCONSIN

CITY           SKY/WX    TMP DP  RH WIND       PRES   REMARKS
ANTIGO         CLOUDY    22  20  93 NE17      29.87R WCI   8
6HR MIN TEMP:  22; 6HR MAX TEMP:  25;

SHAWANO        CLOUDY    28  25  89 NE13      29.90R WCI  18
6HR MIN TEMP:  28; 6HR MAX TEMP:  33; 6HR PCP:  0.03;

OCONTO         CLOUDY    28  26  93 NE9       29.92F WCI  19
6HR MIN TEMP:  27; 6HR MAX TEMP:  32; 6HR PCP:  0.08;

STURGEON BAY   FLURRIES  30  28  93 N9        29.93R WCI  22
6HR MIN TEMP:  29; 6HR MAX TEMP:  31; 6HR PCP:  0.02;

GREEN BAY      CLOUDY    28  25  88 NE23G31   29.89S FOG     WCI  14
6HR MIN TEMP:  27; 6HR MAX TEMP:  32; 6HR PCP:  0.01;

MANITOWOC      MIX PCPN  33  32  96 NE12G20   29.88S FOG     WCI  24
6HR MIN TEMP:  31; 6HR MAX TEMP:  38; 6HR PCP:  0.03;

APPLETON       CLOUDY    27  25  93 NE18G28   29.84F FOG     WCI  13
CLINTONVILLE   CLOUDY    27  24  89 NE12      29.88F WCI  17
6HR MIN TEMP:  27; 6HR MAX TEMP:  33; 6HR PCP:  0.04;

OSHKOSH        CLOUDY    28  27  96 NE18      29.85S FOG     WCI  15
6HR MIN TEMP:  28; 6HR MAX TEMP:  37; 6HR PCP: TRACE;

$$

WIZ032>034-041-042-053>061-200100-
SOUTHWEST WISCONSIN

CITY           SKY/WX    TMP DP  RH WIND       PRES   REMARKS
LA CROSSE      CLOUDY    36  34  92 NE6       29.76S FOG     WCI  31
6HR MIN TEMP:  36; 6HR MAX TEMP:  39; 6HR PCP:  0.01;

SPARTA         LGT RAIN  33  32  97 E10G18    29.78S WCI  25
6HR MIN TEMP:  33; 6HR MAX TEMP:  38;

VIROQUA        CLOUDY    35  35 100 E15       29.72R WCI  25
6HR MIN TEMP:  35; 6HR MAX TEMP:  39;

BOSCOBEL       CLOUDY    39  37  92 VRB6      29.74R WCI  35
6HR MIN TEMP:  39; 6HR MAX TEMP:  40; 6HR PCP:  0.06;

PRAIRIE DU CHI CLOUDY    38  37  94 E5        29.72R FOG     WCI  35
6HR MIN TEMP:  37; 6HR MAX TEMP:  38; 6HR PCP:  0.05;

PLATTEVILLE    CLOUDY    37  37 100 E14       29.72F WCI  28
6HR MIN TEMP:  37; 6HR MAX TEMP:  37; 6HR PCP:  0.13;

$$

WIZ056-057-062-063-064-067-068-200100-
SOUTH CENTRAL WISCONSIN

CITY           SKY/WX    TMP DP  RH WIND       PRES   REMARKS
REEDSBURG      CLOUDY    32  32 100 E9G16     29.77S FOG     WCI  25
6HR MIN TEMP:  34; 6HR MAX TEMP:  38;

BARABOO/DELLS  CLOUDY    33  32  96 NE9       29.78R FOG     WCI  25
6HR MIN TEMP:  33; 6HR MAX TEMP:  38;

LONE ROCK      CLOUDY    37  36  96 E13       29.76S FOG     WCI  29
6HR MIN TEMP:  37; 6HR MAX TEMP:  38; 6HR PCP:  0.08;

MINERAL POINT  CLOUDY    37  37 100 E15       29.72F FOG     WCI  28
MADISON        HVY RAIN  35  34  96 E12       29.78S FOG     WCI  27
6HR MIN TEMP:  35; 6HR MAX TEMP:  38; 6HR PCP:  0.23;

MIDDLETON      CLOUDY    37  37 100 NE7       29.78S WCI  31
6HR MIN TEMP:  37; 6HR MAX TEMP:  39; 6HR PCP:  0.19;

WATERTOWN      LGT RAIN  36  36 100 E12       29.78F WCI  27
6HR MIN TEMP:  35; 6HR MAX TEMP:  40; 6HR PCP:  0.14;

MONROE         DRZL/FOG  37  36  93 E6        29.73S VSB 1/4 WCI  33
JANESVILLE     LGT RAIN  37  37 100 E7        29.74S WCI  32
$$

WIZ051-052-058>065-066-070>072-200100-
SOUTHEAST WISCONSIN

CITY           SKY/WX    TMP DP  RH WIND       PRES   REMARKS
MILWAUKEE      LGT RAIN  37  37 100 NE10      29.83R FOG     WCI  30
6HR MIN TEMP:  37; 6HR MAX TEMP:  42; 6HR PCP:  0.40;

WAUKESHA       LGT RAIN  36  34  93 E9        29.82R FOG     WCI  29
MILWAUKEE/TIMM RAIN      36  34  93 N10       29.85R WCI  28
RACINE         LGT RAIN  36  36 100 N9        29.84R FOG     WCI  29
6HR MIN TEMP:  37; 6HR MAX TEMP:  39; 6HR PCP:  0.18;

BURLINGTON     MIX PCPN  37  36  96 NE3       29.81R
6HR MIN TEMP:  37; 6HR MAX TEMP:  40; 6HR PCP:  0.10;

KENOSHA        LGT RAIN  38  36  92 NE6       29.80R VSB 3/4 WCI  33
6HR MIN TEMP:  38; 6HR MAX TEMP:  40; 6HR PCP:  0.09;

FOND DU LAC    LGT RAIN  33  30  88 NE12      29.85R FOG     WCI  24
6HR MIN TEMP:  33; 6HR MAX TEMP:  43; 6HR PCP:  0.01;

SHEBOYGAN      LGT RAIN  33  33 100 NE15      29.86R FOG     WCI  23
6HR MIN TEMP:  32; 6HR MAX TEMP:  40; 6HR PCP:  0.04;

WEST BEND      LGT SNOW  34  34 100 NE9       29.84R WCI  26
JUNEAU         RAIN      33  32  97 NE13G18   29.82S WCI  24
6HR MIN TEMP:  33; 6HR MAX TEMP:  39; 6HR PCP:  0.04;

$$

LSZ147-162-200100-
LAKE SUPERIOR

STATION/POSITION TIME  TEMP    WIND        PRES    WAVE
                       AIR SEA DIR/SP/G            HT/PER
                 (UTC) (F)     (DEG/KT/KT) (MB)    (FT/S)
DEVILS ISLAND    0000   19      50/ 29/ 33 1019.9R
SAXON HARBOR     2340   18      60/ 22/ 29 1016.6S
$$

LMZ867-665-643>646-200100-
LAKE MICHIGAN

STATION/POSITION TIME  TEMP    WIND        PRES    WAVE
                       AIR SEA DIR/SP/G            HT/PER




USA.gov is the U.S. government's official web portal to all federal, state and local government web resources and services.